When you browse on this site, cookies collect data to enhance your experience and personalize the content and advertising you see.
Visit our Privacy Policy to learn more. By continuing to use the site, you agree to this use of cookies and data.
  • Em Portugal
  • Lista de países
  • Para 7 dias
  • Temperatura da água
  • Mapas de satélite
  • Mapa do tempo
  • Widgets de tempo
  • user-avatar
    Iniciar Sessão

    Previsão horária em Gabrovo

    Hoje, 17 Novembro, Sábado

    Tempo Temperatura Precipitação Vento Pressão Humidade
    00:00 -2°C° 0 mm 2 m/s 709 mmHg 74%
    01:00 0°C° 0 mm 1 m/s 709 mmHg 75%
    02:00 -1°C° 0 mm 1 m/s 709 mmHg 77%
    03:00 -1°C° 0 mm 1 m/s 709 mmHg 78%
    04:00 -1°C° 0 mm 1 m/s 709 mmHg 78%
    05:00 -1°C° 0 mm 1 m/s 709 mmHg 79%
    06:00 -1°C° 0 mm 1 m/s 709 mmHg 79%
    07:00 -1°C° 0 mm 1 m/s 709 mmHg 78%
    08:00 -1°C° 0 mm 1 m/s 709 mmHg 77%
    09:00 0°C° 0 mm 1 m/s 709 mmHg 72%
    10:00 +1°C° 0 mm 1 m/s 709 mmHg 68%
    11:00 +2°C° 0 mm 1 m/s 709 mmHg 63%
    12:00 +2°C° 0 mm 2 m/s 709 mmHg 62%
    13:00 +3°C° 0 mm 2 m/s 709 mmHg 61%
    14:00 +3°C° 0 mm 2 m/s 709 mmHg 60%
    15:00 +2°C° 0 mm 2 m/s 709 mmHg 64%
    16:00 +2°C° 0 mm 2 m/s 708 mmHg 68%
    17:00 +1°C° 0 mm 2 m/s 708 mmHg 71%
    18:00 +1°C° 0 mm 2 m/s 708 mmHg 73%
    19:00 +1°C° 0 mm 2 m/s 708 mmHg 75%
    20:00 -1°C° 0 mm 2 m/s 708 mmHg 77%
    21:00 +1°C° 0 mm 2 m/s 708 mmHg 77%
    22:00 +1°C° 0 mm 2 m/s 708 mmHg 76%
    23:00 +1°C° 0 mm 2 m/s 708 mmHg 76%

    Amanhã, 18 Novembro, Domingo

    Tempo Temperatura Precipitação Vento Pressão Humidade
    00:00 +1°C° 0 mm 2 m/s 708 mmHg 76%
    01:00 +1°C° 0 mm 2 m/s 708 mmHg 77%
    02:00 +2°C° 0 mm 1 m/s 708 mmHg 77%
    03:00 +2°C° 0 mm 1 m/s 708 mmHg 78%
    04:00 +2°C° 0 mm 1 m/s 707 mmHg 79%
    05:00 +2°C° 0 mm 1 m/s 707 mmHg 79%
    06:00 +2°C° 0 mm 1 m/s 707 mmHg 79%
    07:00 +3°C° 0 mm 1 m/s 707 mmHg 80%
    08:00 +3°C° 0 mm 1 m/s 707 mmHg 80%
    09:00 +3°C° 0 mm 1 m/s 707 mmHg 78%
    10:00 +4°C° 0 mm 1 m/s 707 mmHg 77%
    11:00 +5°C° 0 mm 1 m/s 707 mmHg 75%
    12:00 +5°C° 0 mm 1 m/s 706 mmHg 75%
    13:00 +4°C° 0 mm 2 m/s 705 mmHg 75%
    14:00 +4°C° 0 mm 2 m/s 704 mmHg 75%
    15:00 +4°C° 0.1 mm 2 m/s 704 mmHg 78%
    16:00 +4°C° 0.1 mm 2 m/s 704 mmHg 81%
    17:00 +3°C° 0.1 mm 2 m/s 703 mmHg 83%
    18:00 +3°C° 0.5 mm 2 m/s 703 mmHg 85%
    19:00 +3°C° 0.5 mm 2 m/s 702 mmHg 86%
    20:00 +3°C° 0.5 mm 2 m/s 702 mmHg 87%
    21:00 +3°C° 0.9 mm 2 m/s 701 mmHg 88%
    22:00 +3°C° 0.9 mm 2 m/s 701 mmHg 89%
    23:00 +3°C° 0.9 mm 2 m/s 700 mmHg 89%

    Depois de amanhã, 19 Novembro, Segunda-feira

    Tempo Temperatura Precipitação Vento Pressão Humidade
    00:00 +3°C° 1 mm 2 m/s 700 mmHg 90%
    01:00 +3°C° 1 mm 2 m/s 700 mmHg 90%
    02:00 +3°C° 1 mm 2 m/s 699 mmHg 90%
    03:00 +3°C° 1.2 mm 2 m/s 699 mmHg 90%
    04:00 +3°C° 1.2 mm 2 m/s 698 mmHg 91%
    05:00 +4°C° 1.2 mm 1 m/s 698 mmHg 91%
    06:00 +4°C° 0.5 mm 1 m/s 698 mmHg 91%
    07:00 +4°C° 0.5 mm 1 m/s 698 mmHg 90%
    08:00 +4°C° 0.5 mm 1 m/s 698 mmHg 90%
    09:00 +4°C° 0.1 mm 1 m/s 698 mmHg 88%
    10:00 +5°C° 0.1 mm 1 m/s 698 mmHg 87%
    11:00 +5°C° 0.1 mm 1 m/s 699 mmHg 85%
    12:00 +6°C° 0 mm 1 m/s 699 mmHg 84%
    13:00 +6°C° 0 mm 1 m/s 698 mmHg 82%
    14:00 +7°C° 0 mm 1 m/s 698 mmHg 81%
    15:00 +6°C° 0 mm 1 m/s 699 mmHg 83%
    16:00 +6°C° 0 mm 1 m/s 699 mmHg 86%
    17:00 +6°C° 0 mm 1 m/s 699 mmHg 88%
    18:00 +5°C° 0 mm 1 m/s 699 mmHg 89%
    19:00 +5°C° 0 mm 1 m/s 700 mmHg 90%
    20:00 +5°C° 0 mm 1 m/s 700 mmHg 91%
    21:00 +5°C° 0 mm 1 m/s 700 mmHg 91%
    22:00 +4°C° 0 mm 0 m/s 701 mmHg 91%
    23:00 +4°C° 0 mm 0 m/s 701 mmHg 92%

    20 Novembro, Terça-feira

    Tempo Temperatura Precipitação Vento Pressão Humidade
    00:00 +5°C° 0 mm 1 m/s 701 mmHg 92%
    01:00 +5°C° 0 mm 1 m/s 701 mmHg 93%
    02:00 +5°C° 0 mm 1 m/s 701 mmHg 94%
    03:00 +5°C° 0 mm 1 m/s 701 mmHg 94%
    04:00 +4°C° 0 mm 2 m/s 701 mmHg 94%
    05:00 +4°C° 0 mm 2 m/s 701 mmHg 95%
    06:00 +4°C° 0 mm 2 m/s 701 mmHg 94%
    07:00 +5°C° 0 mm 2 m/s 701 mmHg 94%
    08:00 +4°C° 0 mm 3 m/s 701 mmHg 94%
    09:00 +5°C° 0.1 mm 3 m/s 701 mmHg 91%
    10:00 +7°C° 0.1 mm 3 m/s 700 mmHg 89%
    11:00 +8°C° 0.1 mm 3 m/s 700 mmHg 87%
    12:00 +7°C° 0 mm 4 m/s 700 mmHg 86%
    13:00 +8°C° 0 mm 4 m/s 699 mmHg 86%
    14:00 +10°C° 0 mm 4 m/s 699 mmHg 85%
    15:00 +10°C° 0.1 mm 4 m/s 699 mmHg 87%
    16:00 +10°C° 0.1 mm 4 m/s 698 mmHg 90%
    17:00 +10°C° 0.1 mm 4 m/s 698 mmHg 92%
    18:00 +10°C° 0.1 mm 4 m/s 698 mmHg 91%
    19:00 +10°C° 0.1 mm 4 m/s 698 mmHg 91%
    20:00 +11°C° 0.1 mm 4 m/s 698 mmHg 91%
    21:00 +11°C° 0 mm 4 m/s 697 mmHg 90%
    22:00 +11°C° 0 mm 4 m/s 697 mmHg 90%
    23:00 +11°C° 0 mm 4 m/s 697 mmHg 90%

    21 Novembro, Quarta-feira

    Tempo Temperatura Precipitação Vento Pressão Humidade
    00:00 +11°C° 0 mm 4 m/s 697 mmHg 89%
    01:00 +11°C° 0 mm 4 m/s 696 mmHg 89%
    02:00 +11°C° 0 mm 4 m/s 696 mmHg 89%
    03:00 +10°C° 0 mm 3 m/s 696 mmHg 89%
    04:00 +10°C° 0 mm 3 m/s 696 mmHg 89%
    05:00 +10°C° 0 mm 3 m/s 696 mmHg 89%
    06:00 +10°C° 0 mm 2 m/s 696 mmHg 89%
    07:00 +10°C° 0 mm 2 m/s 696 mmHg 88%
    08:00 +10°C° 0 mm 2 m/s 696 mmHg 88%
    09:00 +12°C° 0 mm 2 m/s 696 mmHg 81%
    10:00 +14°C° 0 mm 2 m/s 697 mmHg 74%
    11:00 +15°C° 0 mm 2 m/s 697 mmHg 67%
    12:00 +15°C° 0 mm 2 m/s 697 mmHg 64%
    13:00 +15°C° 0 mm 2 m/s 697 mmHg 61%
    14:00 +16°C° 0 mm 3 m/s 697 mmHg 58%
    15:00 +15°C° 0 mm 2 m/s 697 mmHg 63%
    16:00 +13°C° 0 mm 2 m/s 698 mmHg 69%
    17:00 +12°C° 0 mm 1 m/s 698 mmHg 75%
    18:00 +10°C° 0 mm 2 m/s 698 mmHg 77%
    19:00 +10°C° 0 mm 2 m/s 698 mmHg 79%
    20:00 +9°C° 0 mm 2 m/s 699 mmHg 81%
    21:00 +9°C° 0 mm 2 m/s 699 mmHg 81%
    22:00 +10°C° 0 mm 1 m/s 699 mmHg 81%
    23:00 +10°C° 0 mm 1 m/s 700 mmHg 81%

    22 Novembro, Quinta-feira

    Tempo Temperatura Precipitação Vento Pressão Humidade
    00:00 +9°C° 0 mm 1 m/s 700 mmHg 80%
    01:00 +9°C° 0 mm 1 m/s 700 mmHg 80%
    02:00 +9°C° 0 mm 1 m/s 700 mmHg 79%
    03:00 +9°C° 0 mm 1 m/s 700 mmHg 79%
    04:00 +8°C° 0 mm 1 m/s 700 mmHg 79%
    05:00 +8°C° 0 mm 1 m/s 700 mmHg 79%
    06:00 +8°C° 0 mm 1 m/s 701 mmHg 79%
    07:00 +8°C° 0 mm 1 m/s 701 mmHg 78%
    08:00 +8°C° 0 mm 1 m/s 701 mmHg 78%
    09:00 +10°C° 0 mm 1 m/s 702 mmHg 71%
    10:00 +11°C° 0 mm 1 m/s 702 mmHg 65%
    11:00 +12°C° 0 mm 0 m/s 703 mmHg 58%
    12:00 +14°C° 0 mm 1 m/s 703 mmHg 56%
    13:00 +14°C° 0 mm 1 m/s 703 mmHg 54%
    14:00 +14°C° 0 mm 1 m/s 703 mmHg 52%
    15:00 +13°C° 0 mm 1 m/s 703 mmHg 57%
    16:00 +12°C° 0 mm 1 m/s 703 mmHg 62%
    17:00 +10°C° 0 mm 0 m/s 703 mmHg 67%
    18:00 +9°C° 0 mm 0 m/s 703 mmHg 69%
    19:00 +10°C° 0 mm 1 m/s 703 mmHg 71%
    20:00 +9°C° 0 mm 1 m/s 703 mmHg 73%
    21:00 +9°C° 0 mm 1 m/s 704 mmHg 74%
    22:00 +9°C° 0 mm 1 m/s 704 mmHg 75%
    23:00 +8°C° 0 mm 1 m/s 704 mmHg 76%
    Mostrar mais